Date String (YYYY-MM-DD hh:mm:ss) UTC,Instrument flags,Ambient pressure (hPa),Sample flow (lpm),Bypass flow (lpm),Sample temperature (°C),Ambient temperature (°C),ASC tube jacket temperature (°C),LED temperature (°C),Box temperature (°C),Sample RH (%),Span deviation,Mass concentration (μg/m³),Mass concentration (μg/m³),Mass concentration (μg/m³)
DateTimeUTC,F1_M11,P_M11,Q1_M11,Q2_M11,T1_M11,T2_M11,T3_M11,T4_M11,T5_M11,U1_M11,ZSPAN_M11,X2_M11,X0_M11,X1_M11
2023-01-30 03:00:00,,0826.5,5.00,0.00,22.4,21.2,00.0,31.3,24.0,04.3,0001.7,0005.44,0009.47,0004.88
2023-01-30 03:01:00,,0826.5,5.00,0.00,22.3,20.8,00.0,31.3,23.9,04.3,0002.1,0005.45,0010.02,0004.88
2023-01-30 03:02:00,,0826.5,5.00,0.00,22.3,20.4,00.0,31.3,23.7,04.3,0002.3,0005.45,0009.80,0004.87
2023-01-30 03:03:00,,0826.5,5.02,0.00,22.2,20.4,00.0,31.2,23.6,04.3,0001.8,0005.47,0009.83,0004.87
2023-01-30 03:04:00,,0826.5,4.99,0.00,22.2,21.3,00.0,31.2,23.9,04.3,0001.6,0005.49,0009.85,0004.87
2023-01-30 03:05:00,,0826.6,5.00,0.00,22.3,22.2,00.0,31.2,24.2,04.3,0001.7,0005.50,0009.81,0004.88
2023-01-30 03:06:00,,0826.7,5.00,0.00,22.5,22.9,00.0,31.2,24.4,04.3,0001.8,0005.53,0009.78,0004.87
2023-01-30 03:07:00,,0826.7,5.00,0.00,22.5,22.3,00.0,31.2,24.3,04.3,0002.4,0005.55,0009.88,0004.87
2023-01-30 03:08:00,,0826.7,5.02,0.00,22.4,21.6,00.0,31.2,24.1,04.3,0002.7,0005.57,0009.93,0004.88
2023-01-30 03:09:00,,0826.6,5.01,0.00,22.4,21.1,00.0,31.3,23.9,04.3,0002.4,0005.62,0009.99,0004.90
2023-01-30 03:10:00,,0826.5,4.99,0.00,22.3,20.8,00.0,31.2,23.8,04.3,0002.6,0005.62,0009.98,0004.91
2023-01-30 03:11:00,,0826.5,5.01,0.00,22.2,20.4,00.0,31.2,23.6,04.3,0002.0,0005.64,0009.51,0004.94
2023-01-30 03:12:00,,0826.6,5.01,0.00,22.1,20.3,00.0,31.2,23.6,04.3,0001.4,0005.60,0008.68,0004.94
2023-01-30 03:13:00,,0826.7,5.01,0.00,22.2,21.2,00.0,31.1,23.9,04.3,0000.4,0005.59,0008.67,0004.95
2023-01-30 03:14:00,,0826.7,5.01,0.00,22.3,22.2,00.0,31.1,24.2,04.3,0000.0,0005.52,0008.62,0004.88
2023-01-30 03:15:00,,0826.7,5.00,0.00,22.4,22.9,00.0,31.1,24.4,04.2,0000.0,0005.42,0008.70,0004.78
2023-01-30 03:16:00,,0826.6,4.99,0.00,22.5,22.5,00.0,31.2,24.4,04.2,0000.0,0005.28,0008.62,0004.67
2023-01-30 03:17:00,,0826.7,5.02,0.00,22.4,21.9,00.0,31.2,24.2,04.2,0000.0,0005.15,0008.48,0004.56
2023-01-30 03:18:00,,0826.7,5.01,0.00,22.4,21.2,00.0,31.2,23.9,04.2,0000.0,0005.00,0008.31,0004.42
2023-01-30 03:19:00,,0826.6,5.01,0.00,22.3,20.7,00.0,31.2,23.8,04.2,0000.0,0004.83,0008.15,0004.28
2023-01-30 03:20:00,,0826.6,5.01,0.00,22.2,20.4,00.0,31.2,23.7,04.2,0000.0,0004.67,0008.06,0004.12
2023-01-30 03:21:00,,0826.6,5.02,0.00,22.2,20.7,00.0,31.2,23.7,04.2,0000.0,0004.47,0007.80,0003.97
2023-01-30 03:22:00,,0826.7,5.01,0.00,22.3,21.8,00.0,31.1,24.0,04.2,0000.0,0004.27,0007.56,0003.80
2023-01-30 03:23:00,,0826.7,4.99,0.00,22.4,22.7,00.0,31.1,24.3,04.1,0000.0,0004.09,0007.35,0003.64
2023-01-30 03:24:00,,0826.7,5.01,0.00,22.5,22.9,00.0,31.2,24.5,04.1,0000.0,0003.91,0006.92,0003.49
2023-01-30 03:25:00,,0826.8,5.00,0.00,22.5,22.2,00.0,31.2,24.3,04.1,0000.0,0003.80,0006.68,0003.40
2023-01-30 03:26:00,,0826.7,5.01,0.00,22.4,21.5,00.0,31.2,24.1,04.1,0000.0,0003.70,0006.06,0003.35
2023-01-30 03:27:00,,0826.7,4.99,0.00,22.4,21.1,00.0,31.2,24.0,04.1,0000.0,0003.66,0005.85,0003.30
2023-01-30 03:28:00,,0826.8,5.00,0.00,22.3,20.7,00.0,31.2,23.8,04.1,0000.0,0003.57,0005.60,0003.26
2023-01-30 03:29:00,,0826.8,5.01,0.00,22.2,20.5,00.0,31.2,23.7,04.1,0000.0,0003.50,0005.35,0003.23
2023-01-30 03:30:00,,0826.8,5.02,0.00,22.3,21.3,00.0,31.1,24.0,04.1,0000.0,0003.49,0005.26,0003.22
2023-01-30 03:31:00,,0826.7,4.98,0.00,22.4,22.2,00.0,31.1,24.2,04.1,0000.0,0003.45,0005.00,0003.21
2023-01-30 03:32:00,,0826.7,4.99,0.00,22.5,22.9,00.0,31.2,24.5,04.1,0000.0,0003.43,0004.91,0003.19
2023-01-30 03:33:00,,0826.7,5.02,0.00,22.6,22.6,00.0,31.2,24.5,04.1,0000.0,0003.41,0004.85,0003.17
2023-01-30 03:34:00,,0826.7,5.00,0.00,22.5,21.9,00.0,31.2,24.2,04.1,0000.0,0003.41,0004.84,0003.16
2023-01-30 03:35:00,,0826.8,5.02,0.00,22.4,21.3,00.0,31.3,24.1,04.1,0000.0,0003.41,0004.81,0003.16
2023-01-30 03:36:00,,0826.8,5.00,0.00,22.4,20.9,00.0,31.3,23.9,04.1,0000.0,0003.40,0004.72,0003.15
2023-01-30 03:37:00,,0826.8,4.99,0.00,22.3,20.5,00.0,31.2,23.8,04.1,0000.0,0003.38,0004.63,0003.14
2023-01-30 03:38:00,,0826.7,5.00,0.00,22.3,20.8,00.0,31.2,23.8,04.1,0000.0,0003.40,0004.66,0003.14
2023-01-30 03:39:00,,0826.8,5.01,0.00,22.3,21.8,00.0,31.2,24.1,04.1,0000.0,0003.43,0004.85,0003.15
2023-01-30 03:40:00,,0826.8,4.99,0.00,22.5,22.6,00.0,31.2,24.4,04.0,0000.0,0003.43,0004.89,0003.15
2023-01-30 03:41:00,,0826.9,4.99,0.00,22.6,22.9,00.0,31.2,24.5,04.0,0000.0,0003.44,0005.02,0003.14
2023-01-30 03:42:00,,0826.8,4.99,0.00,22.6,22.2,00.0,31.3,24.4,04.0,0000.0,0003.42,0004.92,0003.14
2023-01-30 03:43:00,,0826.8,5.01,0.00,22.5,21.6,00.0,31.3,24.2,04.0,0000.0,0003.40,0004.84,0003.13
2023-01-30 03:44:00,,0826.8,4.99,0.00,22.4,21.1,00.0,31.3,24.0,04.0,0000.0,0003.39,0004.80,0003.13
2023-01-30 03:45:00,,0827.0,4.99,0.00,22.4,20.8,00.0,31.3,23.9,04.0,0000.0,0003.35,0004.73,0003.12
2023-01-30 03:46:00,,0826.8,5.00,0.00,22.3,20.6,00.0,31.3,23.8,04.0,0000.0,0003.33,0004.76,0003.08
2023-01-30 03:47:00,,0826.8,5.00,0.00,22.3,21.3,00.0,31.2,24.0,04.0,0000.0,0003.31,0004.72,0003.05
2023-01-30 03:48:00,,0826.8,4.99,0.00,22.4,22.3,00.0,31.2,24.3,04.0,0000.0,0003.33,0004.95,0003.02
2023-01-30 03:49:00,,0826.8,5.01,0.00,22.5,22.9,00.0,31.2,24.5,04.0,0000.0,0003.30,0004.91,0002.99
2023-01-30 03:50:00,,0826.9,4.99,0.00,22.6,22.8,00.0,31.3,24.5,03.9,0000.0,0003.26,0004.69,0002.97
2023-01-30 03:51:00,,0826.9,5.00,0.00,22.6,22.1,00.0,31.3,24.4,03.9,0000.0,0003.24,0004.55,0002.96
2023-01-30 03:52:00,,0827.1,5.00,0.00,22.5,21.6,00.0,31.3,24.2,03.9,0000.0,0003.23,0004.51,0002.97
2023-01-30 03:53:00,,0826.9,4.98,0.00,22.5,21.1,00.0,31.3,24.0,03.9,0000.0,0003.24,0004.55,0002.98
2023-01-30 03:54:00,,0826.9,5.00,0.00,22.4,20.8,00.0,31.3,23.9,03.9,0000.0,0003.25,0004.59,0002.98
2023-01-30 03:55:00,,0826.8,4.99,0.00,22.3,20.5,00.0,31.3,23.8,03.9,0000.0,0003.25,0004.58,0003.00
2023-01-30 03:56:00,,0826.8,5.03,0.00,22.4,21.2,00.0,31.2,24.0,03.9,0000.0,0003.26,0004.67,0003.03
2023-01-30 03:57:00,,0827.1,5.00,0.00,22.5,22.1,00.0,31.2,24.3,03.9,0000.0,0003.29,0004.70,0003.07
2023-01-30 03:58:00,,0826.9,5.00,0.00,22.6,22.9,00.0,31.2,24.5,03.9,0000.0,0003.30,0004.73,0003.11
2023-01-30 03:59:00,,0826.9,4.98,0.00,22.6,22.7,00.0,31.3,24.5,03.9,0000.0,0003.31,0004.82,0003.14
